Location: Ferchesar
(52.6477°N, 12.4298°E)
Time: 08:45:36
(UTC+01:00)

Altair - Visible Passes

Search period start: 30 November 2022 00:00
Search period end: 10 December 2022 00:00
Orbit: 1501 x 1682 km, 47.2° (Epoch: 29 November)

Date Brightness Start Highest point End Pass type
(mag) Time Alt. Az. Time Alt. Az. Time Alt. Az.
30 Nov 8.0 17:17:01 10° W 17:26:01 58° SSW 17:34:55 10° ESE visible
30 Nov 8.6 19:21:38 10° W 19:29:25 32° SW 19:35:17 16° SSE visible
01 Dec 8.0 16:51:51 10° W 17:00:54 59° SSW 17:09:49 10° ESE visible
01 Dec 8.6 18:56:25 10° W 19:04:22 34° SW 19:12:15 10° SSE visible
01 Dec 9.6 21:05:07 10° WSW 21:06:39 10° WSW 21:08:11 10° SW visible
02 Dec 8.0 16:26:41 10° W 16:35:47 60° S 16:44:43 10° ESE visible
02 Dec 8.6 18:31:12 10° W 18:39:18 36° SW 18:47:22 10° SSE visible
02 Dec 9.6 20:38:41 10° WSW 20:41:41 12° SW 20:44:42 10° SW visible
03 Dec 8.6 18:06:00 10° W 18:14:14 38° SSW 18:22:26 10° SSE visible
03 Dec 9.6 20:12:49 10° W 20:16:42 13° SW 20:20:37 10° SSW visible
04 Dec 8.6 17:40:48 10° W 17:49:10 40° SSW 17:57:28 10° SE visible
04 Dec 9.6 19:47:08 10° W 19:51:44 15° SW 19:56:20 10° SSW visible
05 Dec 8.6 17:15:36 10° W 17:24:06 42° SSW 17:32:29 10° SE visible
05 Dec 9.6 19:21:35 10° W 19:26:44 17° SW 19:31:55 10° SSW visible
06 Dec 8.6 16:50:24 10° W 16:59:01 44° SSW 17:07:30 10° SE visible
06 Dec 9.6 18:56:07 10° W 19:01:45 18° SW 19:07:23 10° S visible
07 Dec 8.6 16:25:13 10° W 16:33:56 46° SSW 16:42:30 10° SE visible
07 Dec 9.6 18:30:42 10° W 18:36:45 20° SW 18:42:48 10° S visible
08 Dec 9.6 18:05:19 10° W 18:11:45 22° SW 18:18:08 10° S visible
09 Dec 9.6 17:39:58 10° W 17:46:45 23° SW 17:53:27 10° S visible
